[[{"header":{"parameterUnit":"m.s-1","parameterCategory":1,"la1":30.2992,"la2":30.254,"lo1":-89.0895,"lo2":-89.0443,"dy":0.0025,"dx":0.0025,"nx":19,"ny":19,"refTime":"2026-04-15T09:00:00:Z","depth":0,"parameterNumber":2,"parameterNumberName":"U-component_of_WINDS"},"data":[0,0,0,-3.3375,-3.3379,-3.3534,-3.3534,-3.3723,-3.3725,0,0,0,0,0,0,0,0,0,0,0,-3.3326,-3.3327,-3.3375,-3.3379,-3.3534,-3.3534,-3.3723,-3.3725,0,0,0,0,0,0,0,0,0,0,0,-3.3325,-3.3327,-3.3328,-3.3379,-3.3534,-3.3534,-3.3722,-3.3608,0,0,0,0,0,0,0,0,0,0,-3.3459,-3.3411,-3.3327,-3.3329,-3.338,-3.3533,-3.3534,-3.3603,-3.3615,-3.3649,0,-3.3681,0,-3.3706,-3.3737,-3.3738,0,0,0,-3.3381,-3.3401,-3.3446,-3.3329,-3.3382,-3.3533,-3.3464,-3.361,-3.3624,-3.3666,-3.3684,-3.3691,-3.3709,-3.3738,-3.3739,-3.3934,-3.3935,0,0,-3.3372,-3.3352,-3.3436,-3.3455,-3.3433,-3.3459,-3.3469,-3.3619,-3.3636,-3.3685,-3.3696,-3.3712,-3.3739,-3.3741,-3.3934,-3.3935,0,0,0,-3.3346,-3.3345,-3.3387,-3.3447,-3.3475,-3.3464,-3.3475,-3.3629,-3.3645,-3.3698,-3.3715,-3.374,-3.3743,-3.3933,-3.3934,-3.3954,0,0,0,-3.3341,-3.3331,-3.3383,-3.3372,-3.3473,-3.3555,-3.3482,-3.3634,-3.3652,-3.3714,-3.374,-3.3744,-3.3932,-3.3933,-3.3951,-3.3965,0,0,0,-3.3317,-3.3328,-3.3349,-3.3371,-3.3437,-3.3553,-3.3577,-3.3638,-3.3662,-3.3738,-3.3745,-3.3931,-3.3933,-3.3949,-3.3962,-3.4009,0,0,0,-3.3285,-3.3365,-3.3349,-3.3445,-3.3436,-3.3565,-3.3576,-3.3674,-3.3741,-3.3741,-3.3932,-3.3934,-3.3948,-3.396,-3.4006,-3.4042,-3.4057,0,0,-3.3374,-3.3375,-3.3433,-3.3424,-3.3551,-3.3543,-3.3673,-3.3754,-3.3779,-3.388,-3.3886,-3.3952,-3.3961,-3.4008,-3.4148,-3.4159,0,0,0,-3.3454,-3.3495,-3.3533,-3.3598,-3.3663,-3.3718,-3.3782,-3.3811,-3.3899,-3.3828,-3.3984,-3.399,-3.4018,-3.4036,-3.4046,-3.4069,-3.3942,-3.3942,-3.3942,-3.3549,-3.3578,-3.3675,-3.3723,-3.3785,-3.385,-3.3902,-3.3953,-3.3964,-3.4,-3.4029,-3.4111,-3.4131,-3.4139,-3.4163,-3.4054,-3.4054,-3.4054,-3.4054,-3.368,-3.3741,-3.3755,-3.3854,-3.3884,-3.3967,-3.4032,-3.4037,-3.4116,-3.4092,-3.4118,-3.4085,-3.415,-3.4173,-3.4056,-3.4055,-3.4055,-3.4055,-3.4055,-3.3742,-3.3776,-3.3813,-3.3908,-3.3978,-3.4024,-3.4099,-3.4125,-3.4148,-3.4175,-3.4206,-3.4206,-3.4206,-3.4189,-3.4189,-3.4189,-3.419,-3.419,-3.419,-3.3791,-3.3832,-3.3893,-3.3969,-3.4013,-3.4074,-3.414,-3.4183,-3.4237,-3.4249,-3.4249,-3.4254,-3.4152,-3.4124,-3.4194,-3.4194,-3.4193,-3.4193,-3.4192,-3.3907,-3.3885,-3.398,-3.4024,-3.4114,-3.418,-3.4213,-3.4298,-3.4337,-3.4373,-3.4374,-3.4296,-3.4297,-3.429,-3.4267,-3.437,-3.437,-3.437,-3.437,-3.3957,-3.3962,-3.4064,-3.4132,-3.4202,-3.4241,-3.4344,-3.4396,-3.4446,-3.4471,-3.4461,-3.4433,-3.4425,-3.4431,-3.4421,-3.4399,-3.4534,-3.4534,-3.4534,-3.4028,-3.4041,-3.4125,-3.4175,-3.4247,-3.4308,-3.4405,-3.4481,-3.4533,-3.4541,-3.4491,-3.4484,-3.444,-3.4425,-3.4427,-3.4411,-3.4372,0,0]},{"header":{"parameterUnit":"m.s-1","parameterCategory":1,"la1":30.2992,"la2":30.254,"lo1":-89.0895,"lo2":-89.0443,"dy":0.0025,"dx":0.0025,"nx":19,"ny":19,"refTime":"2026-04-15T09:00:00:Z","depth":0,"parameterNumber":3,"parameterNumberName":"V-component_of_WINDS"},"data":[0,0,0,3.509,3.5094,3.5318,3.5318,3.5592,3.5594,0,0,0,0,0,0,0,0,0,0,0,3.5014,3.5016,3.5089,3.5095,3.5317,3.5319,3.5591,3.5594,0,0,0,0,0,0,0,0,0,0,0,3.5014,3.5015,3.5017,3.5095,3.5317,3.5319,3.5591,3.5427,0,0,0,0,0,0,0,0,0,0,3.5212,3.5134,3.5015,3.5017,3.5097,3.5317,3.5319,3.5419,3.5437,3.5485,0,3.5524,0,3.5563,3.5612,3.5612,0,0,0,3.5101,3.5119,3.5187,3.5018,3.5098,3.5317,3.5219,3.543,3.545,3.5509,3.5528,3.5538,3.5568,3.5613,3.5615,3.5865,3.5866,0,0,3.5089,3.505,3.5173,3.52,3.5163,3.5212,3.5226,3.5442,3.546,3.5529,3.5545,3.5572,3.5615,3.5617,3.5864,3.5865,0,0,0,3.5049,3.5041,3.5104,3.5188,3.5229,3.5218,3.5234,3.5451,3.5475,3.5548,3.5575,3.5616,3.562,3.5863,3.5865,3.5868,0,0,0,3.5042,3.5017,3.5098,3.5076,3.5225,3.5342,3.5238,3.546,3.5486,3.5574,3.5617,3.5622,3.5862,3.5864,3.5866,3.5876,0,0,0,3.5003,3.5013,3.5042,3.5074,3.5168,3.534,3.5377,3.5466,3.5502,3.5613,3.5623,3.5862,3.5864,3.5864,3.5873,3.5932,0,0,0,3.495,3.5041,3.5041,3.5154,3.5166,3.534,3.5376,3.5507,3.5602,3.5618,3.5863,3.5864,3.5864,3.5872,3.5929,3.5974,3.5988,0,0,3.5043,3.5051,3.5121,3.5128,3.5291,3.5309,3.5475,3.5599,3.5646,3.579,3.5796,3.5867,3.5873,3.5931,3.6083,3.6094,0,0,0,3.5137,3.5186,3.5239,3.5327,3.5425,3.5511,3.5614,3.5661,3.5785,3.5711,3.5905,3.591,3.5946,3.5969,3.5978,3.6012,3.5873,3.5873,3.5873,3.5211,3.5267,3.5387,3.5471,3.5557,3.5664,3.574,3.5822,3.5852,3.5897,3.594,3.6025,3.6051,3.6058,3.6093,3.5968,3.5968,3.5968,3.5968,3.5353,3.5433,3.5473,3.5604,3.5664,3.5775,3.5884,3.5902,3.6016,3.5997,3.6031,3.6005,3.6069,3.6102,3.5969,3.5969,3.5969,3.5968,3.5968,3.5408,3.5456,3.5512,3.5648,3.5748,3.583,3.5938,3.5989,3.6037,3.6071,3.6123,3.6123,3.613,3.6092,3.6093,3.6093,3.6093,3.6093,3.6094,3.5442,3.5505,3.5589,3.5703,3.5768,3.5861,3.5973,3.6039,3.6126,3.6155,3.6155,3.6183,3.6064,3.6033,3.6099,3.6098,3.6097,3.6097,3.6096,3.5565,3.5546,3.5675,3.5741,3.5881,3.5978,3.6042,3.6174,3.6236,3.6289,3.631,3.6214,3.6226,3.6218,3.6193,3.6296,3.6296,3.6296,3.6296,3.5611,3.5623,3.5768,3.5871,3.5977,3.6049,3.6197,3.6286,3.6375,3.6419,3.6411,3.6383,3.6373,3.6391,3.638,3.6358,3.65,3.65,3.65,3.5691,3.5716,3.583,3.5917,3.6031,3.6128,3.627,3.6388,3.6485,3.651,3.6454,3.6445,3.64,3.6382,3.6402,3.6384,3.6344,0,0]}]]